Corning, AR

3:25 AM CDT on September 30, 2016 (GMT -0500)
Corning

Weather History for K4M9 - April, 2013

Change the Weather History Date:

Saturday, April 27, 2013

  Actual Average (KARG) Record (KARG)
Temperature  
Mean Temperature 55 °F -  
Max Temperature 60 °F 71 °F 86 °F (2001)
Min Temperature 50 °F 52 °F 42 °F (2005)
Degree Days  
Heating Degree Days 10    
Growing Degree Days 5 (Base 50)    
Moisture  
Dew Point 55 °F    
Average Humidity 99    
Maximum Humidity 100    
Minimum Humidity 94    
Precipitation  
Precipitation 1.09 in - - ()
Sea Level Pressure  
Sea Level Pressure 30.06 in    
Wind  
Wind Speed 9 mph (NE)    
Max Wind Speed 20 mph    
Max Gust Speed 24 mph    
Visibility 6 miles    
Events Rain , Thunderstorm    
Averages and records for this station are not official NWS values.
T = Trace of Precipitation, MM = Missing Value Source: NWS Daily Summary

Daily Weather History Graph

Daily Weather History Graph

Search for Another Location

Airport or City:

Trip Planner

Search our weather history database for the weather conditions in past years. The results will help you decide how hot, cold, wet, or windy it might be!

Date:

Astronomy

Apr. 27, 2013 Rise Set
Actual Time 6:13 AM CDT 7:47 PM CDT
Civil Twilight 5:46 AM CDT 8:14 PM CDT
Nautical Twilight 5:13 AM CDT 8:47 PM CDT
Astronomical Twilight 4:38 AM CDT 9:22 PM CDT
Moon 10:13 PM CDT (4/27) 7:34 AM CDT (4/27)
Length of Visible Light 14h 28m
Length of Day
13h 33m
Waning Gibbous, 95% of the Moon is Illuminated
Apr 27
Waning Gibbous
May 2
Last Quarter
May 9
New
May 17
First Quarter
May 24
Full

Hourly Weather History & Observations

Time (CDT) Temp. Dew Point Humidity Pressure Visibility Wind Dir Wind Speed Gust Speed Precip Events Conditions
12:15 AM 50.0 °F 50.0 °F 100% 30.23 in 10.0 mi East 10.4 mph - N/A   Overcast
12:35 AM 50.0 °F 50.0 °F 100% 30.22 in 10.0 mi East 11.5 mph - N/A   Overcast
12:55 AM 50.0 °F 50.0 °F 100% 30.21 in 10.0 mi East 12.7 mph - N/A   Overcast
1:15 AM 50.0 °F 50.0 °F 100% 30.22 in 10.0 mi ENE 5.8 mph - N/A Thunderstorm Overcast
1:35 AM 50.0 °F 50.0 °F 100% 30.24 in 5.0 mi NNW 10.4 mph - 0.02 in Rain Light Rain
1:55 AM 50.0 °F 50.0 °F 100% 30.23 in 4.0 mi NNE 9.2 mph - 0.06 in Rain Light Rain
2:15 AM 50.0 °F 50.0 °F 100% 30.21 in 2.5 mi NNE 10.4 mph - 0.02 in Rain Light Rain
2:35 AM 50.0 °F 50.0 °F 100% 30.21 in 4.0 mi NE 10.4 mph - 0.04 in Rain Light Rain
2:55 AM 50.0 °F 50.0 °F 100% 30.19 in 5.0 mi ENE 15.0 mph - 0.05 in   Overcast
3:15 AM 50.0 °F 50.0 °F 100% 30.18 in 7.0 mi ENE 11.5 mph - N/A   Overcast
3:35 AM 50.0 °F 50.0 °F 100% 30.17 in 2.0 mi ENE 12.7 mph - 0.06 in Rain Light Rain
3:55 AM 50.0 °F 50.0 °F 100% 30.17 in 7.0 mi ENE 13.8 mph - 0.06 in   Overcast
4:15 AM 50.0 °F 50.0 °F 100% 30.16 in 8.0 mi ENE 15.0 mph - N/A   Overcast
4:35 AM 50.0 °F 50.0 °F 100% 30.14 in 5.0 mi ENE 13.8 mph - N/A Rain , Thunderstorm Light Rain
4:55 AM 50.0 °F 50.0 °F 100% 30.16 in 5.0 mi ENE 6.9 mph - 0.07 in Rain , Thunderstorm Light Rain
6:15 AM 51.8 °F 51.8 °F 100% 30.11 in 2.5 mi East 12.7 mph - 0.15 in Rain , Thunderstorm Thunderstorms and Rain
6:35 AM 51.8 °F 51.8 °F 100% 30.15 in 4.0 mi NW 16.1 mph - 0.17 in Rain , Thunderstorm Light Rain
6:55 AM 51.8 °F 51.8 °F 100% 30.18 in 1.0 mi NNW 4.6 mph - 0.57 in Rain , Thunderstorm Heavy Rain
7:15 AM 51.8 °F 51.8 °F 100% 30.08 in 1.2 mi East 19.6 mph - 0.10 in Rain , Thunderstorm Heavy Rain
7:35 AM 51.8 °F 51.8 °F 100% 30.08 in 2.5 mi ENE 12.7 mph 24.2 mph 0.18 in Rain , Thunderstorm Rain
7:55 AM 53.6 °F 53.6 °F 100% 30.11 in 8.0 mi East 8.1 mph 18.4 mph 0.19 in Rain Light Rain
8:15 AM 53.6 °F 53.6 °F 100% 30.12 in 10.0 mi East 10.4 mph - N/A   Scattered Clouds
8:35 AM 53.6 °F 53.6 °F 100% 30.11 in 10.0 mi ESE 13.8 mph - N/A   Partly Cloudy
8:55 AM 55.4 °F 55.4 °F 100% 30.11 in 10.0 mi ESE 12.7 mph - N/A   Scattered Clouds
9:15 AM 55.4 °F 55.4 °F 100% 30.10 in 10.0 mi East 10.4 mph - N/A   Scattered Clouds
9:35 AM 55.4 °F 55.4 °F 100% 30.11 in 9.0 mi ESE 10.4 mph - N/A   Scattered Clouds
9:55 AM 55.4 °F 55.4 °F 100% 30.11 in 10.0 mi ESE 10.4 mph - N/A   Scattered Clouds
10:15 AM 55.4 °F 55.4 °F 100% 30.12 in 10.0 mi ESE 10.4 mph - N/A   Mostly Cloudy
10:35 AM 55.4 °F 55.4 °F 100% 30.10 in 5.0 mi ESE 9.2 mph - N/A   Scattered Clouds
10:55 AM 55.4 °F 55.4 °F 100% 30.10 in 8.0 mi ESE 9.2 mph - N/A   Partly Cloudy
11:15 AM 57.2 °F 55.4 °F 94% 30.09 in 10.0 mi ESE 9.2 mph - N/A   Clear
11:35 AM 57.2 °F 55.4 °F 94% 30.09 in 10.0 mi SE 8.1 mph - N/A   Partly Cloudy
11:55 AM 57.2 °F 55.4 °F 94% 30.09 in 10.0 mi SE 8.1 mph - N/A   Scattered Clouds
12:15 PM 57.2 °F 57.2 °F 100% 30.07 in 4.0 mi SE 9.2 mph - N/A Rain Light Rain
12:35 PM 59.0 °F 57.2 °F 94% 30.05 in 10.0 mi SE 8.1 mph - 0.01 in   Mostly Cloudy
12:55 PM 59.0 °F 57.2 °F 94% 30.06 in 10.0 mi SSE 8.1 mph - 0.01 in   Mostly Cloudy
1:15 PM 59.0 °F 57.2 °F 94% 30.03 in 5.0 mi ESE 6.9 mph - N/A Rain Light Rain
1:35 PM 59.0 °F 57.2 °F 94% 30.03 in 8.0 mi SE 10.4 mph - N/A   Mostly Cloudy
1:55 PM 59.0 °F 59.0 °F 100% 30.03 in 4.0 mi SSE 5.8 mph - 0.02 in Rain Light Rain
2:15 PM 59.0 °F 59.0 °F 100% 30.02 in 5.0 mi Calm Calm - 0.01 in Rain , Thunderstorm Light Rain
2:35 PM 59.0 °F 59.0 °F 100% 30.01 in 9.0 mi SSE 4.6 mph - 0.01 in Thunderstorm Scattered Clouds
2:55 PM 60.8 °F 59.0 °F 94% 30.01 in 9.0 mi SE 5.8 mph - 0.01 in Thunderstorm Scattered Clouds
3:15 PM 60.8 °F 59.0 °F 94% 30.00 in 8.0 mi Calm Calm - N/A   Mostly Cloudy
3:35 PM 59.0 °F 59.0 °F 100% 29.99 in 3.0 mi Calm Calm - 0.01 in Rain Light Rain
3:55 PM 59.0 °F 59.0 °F 100% 29.98 in 1.5 mi Calm Calm - 0.02 in Rain Light Rain
4:15 PM 59.0 °F 59.0 °F 100% 29.98 in 1.5 mi Calm Calm - 0.02 in Rain Light Rain
4:35 PM 59.0 °F 59.0 °F 100% 29.97 in 1.0 mi Calm Calm - 0.02 in Rain Light Rain
4:55 PM 59.0 °F 59.0 °F 100% 29.97 in 1.2 mi WNW 4.6 mph - 0.03 in   Clear
5:15 PM 59.0 °F 59.0 °F 100% 29.96 in 1.2 mi NNW 4.6 mph - N/A Rain Light Rain
5:35 PM 59.0 °F 59.0 °F 100% 29.96 in 1.5 mi North 4.6 mph - N/A   Scattered Clouds
5:55 PM 59.0 °F 59.0 °F 100% 29.96 in 3.0 mi NNW 4.6 mph - N/A   Partly Cloudy
6:15 PM 59.0 °F 59.0 °F 100% 29.95 in 4.0 mi NNE 6.9 mph - N/A   Partly Cloudy
6:35 PM 59.0 °F 59.0 °F 100% 29.95 in 5.0 mi North 5.8 mph - N/A   Scattered Clouds
6:55 PM 57.2 °F 57.2 °F 100% 29.95 in 8.0 mi North 6.9 mph - N/A   Overcast
7:15 PM 57.2 °F 57.2 °F 100% 29.94 in 5.0 mi NNW 6.9 mph - N/A   Overcast
7:35 PM 57.2 °F 57.2 °F 100% 29.95 in 7.0 mi North 5.8 mph - N/A   Overcast
7:55 PM 57.2 °F 57.2 °F 100% 29.96 in 2.5 mi North 5.8 mph - N/A   Overcast
8:15 PM 57.2 °F 57.2 °F 100% 29.96 in 2.0 mi NNW 9.2 mph - N/A   Mostly Cloudy
8:35 PM 57.2 °F 57.2 °F 100% 29.96 in 1.8 mi NNW 10.4 mph - N/A   Mostly Cloudy
8:55 PM 57.2 °F 57.2 °F 100% 29.96 in 5.0 mi NNW 9.2 mph - N/A   Mostly Cloudy
9:15 PM 57.2 °F 57.2 °F 100% 29.96 in 10.0 mi NNW 12.7 mph - N/A   Overcast
9:35 PM 57.2 °F 57.2 °F 100% 29.96 in 10.0 mi NNW 6.9 mph - N/A   Overcast
9:55 PM 55.4 °F 55.4 °F 100% 29.96 in 10.0 mi NNW 9.2 mph - N/A   Overcast
10:15 PM 55.4 °F 55.4 °F 100% 29.97 in 10.0 mi NW 5.8 mph - N/A   Mostly Cloudy
10:35 PM 55.4 °F 55.4 °F 100% 29.97 in 10.0 mi WNW 6.9 mph - N/A   Partly Cloudy
10:55 PM 55.4 °F 55.4 °F 100% 29.98 in 10.0 mi West 4.6 mph - N/A   Mostly Cloudy
11:15 PM 55.4 °F 55.4 °F 100% 29.97 in 10.0 mi West 4.6 mph - N/A   Overcast
11:35 PM 55.4 °F 55.4 °F 100% 29.96 in 10.0 mi West 5.8 mph - N/A   Overcast
11:55 PM 55.4 °F 55.4 °F 100% 29.96 in 10.0 mi West 4.6 mph - N/A   Overcast